Location: Vojnic
(45.3264°N, 15.6972°E)
Time: 20:58:39
(UTC+02:00)

USA 238 DEB - Visible Passes

Search period start: 24 September 2022 00:00
Search period end: 04 October 2022 00:00
Orbit: 961 x 1251 km, 63.4° (Epoch: 31 August)

Date Brightness Start Highest point End Pass type
(mag) Time Alt. Az. Time Alt. Az. Time Alt. Az.
24 Sep 6.3 06:07:16 10° SE 06:10:45 15° ESE 06:14:20 10° ENE visible
27 Sep 6.0 05:42:17 10° SSE 05:46:51 21° ESE 05:51:36 10° ENE visible
28 Sep 6.3 05:00:18 10° SE 05:02:35 12° ESE 05:04:54 10° E visible
29 Sep 4.8 06:01:32 10° S 06:07:30 45° ESE 06:13:50 10° NE visible
30 Sep 5.5 05:17:45 10° SSE 05:23:01 28° ESE 05:28:31 10° NE visible
01 Oct 6.0 04:34:45 10° SE 04:38:40 17° ESE 04:42:40 10° ENE visible
01 Oct 3.7 06:22:07 10° SW 06:28:31 88° SE 06:35:23 10° NE visible
02 Oct 4.2 05:37:34 10° SSW 05:43:47 58° ESE 05:50:25 10° NE visible
03 Oct 4.9 04:53:28 10° S 04:59:13 37° ESE 05:05:17 10° NE visible
